Regional Weather Roundup
Issued by NWS Cleveland, OH

Home | Current Version | Previous Version | Graphics & Text | Print | Product List | Glossary On
Versions: 1 2 3 4 5 6 7 8 9 10 11 12 13 14 15 16 17 18 19 20 21 22 23 24 25 26 27 28 29 30 31 32 33 34 35 36 37 38 39 40 41 42 43 44 45 46 47 48 49 50
000
ASUS41 KCLE 200610
RWRCLE
OHIO REGIONAL WEATHER ROUNDUP
NATIONAL WEATHER SERVICE CLEVELAND, OH
100 AM EST SAT DEC 20 2014

NOTE: "FAIR" INDICATES FEW OR NO CLOUDS BELOW 12,000 FEET WITH NO
SIGNIFICANT WEATHER AND/OR OBSTRUCTIONS TO VISIBILITY.

OHZ001>008-015>018-024>027-034-035-043-044-200700-
   NORTHWEST OHIO

CITY           SKY/WX    TMP DP  RH WIND       PRES   REMARKS
DEFIANCE       CLOUDY    28  23  81 CALM      30.27F
FINDLAY        CLOUDY    30  22  72 SE3       30.25F
TOLEDO EXPRESS CLOUDY    29  22  75 CALM      30.27S
TOLEDO EXEC    CLOUDY    30  23  75 SE3       30.28F
LIMA           CLOUDY    30  23  75 CALM      30.25S
$$

OHZ009>014-019>023-028>033-038-089-200700-
   NORTHEAST OHIO

CITY           SKY/WX    TMP DP  RH WIND       PRES   REMARKS
CLE-HOPKINS    CLOUDY    29  21  72 SW5       30.29S WCI  24
CLE-LAKEFRONT  CLOUDY    31  20  63 CALM      30.27S
CUY CO. ARPT   NOT AVBL
LORAIN-ELYRIA  CLOUDY    29  22  75 CALM      30.27S
ASHTABULA      CLOUDY    29  21  72 CALM      30.25F
AKRON-CANTON   CLOUDY    28  20  71 CALM      30.24F
WOOSTER        CLOUDY    28  20  71 CALM      30.25F
MANSFIELD      CLOUDY    28  20  71 NE3       30.23F
YOUNGSTOWN     CLOUDY    27  19  72 CALM      30.23F
$$

OHZ042-051>053-060>062-070>072-077>081-200700-
  SOUTHWEST OHIO

CITY           SKY/WX    TMP DP  RH WIND       PRES   REMARKS
CINC-COVINGTON CLOUDY    30  21  69 SE7       30.25S WCI  23
CINC-LUNKEN    CLOUDY    30  24  78 CALM      30.29R
HAMILTON       CLOUDY    31  23  72 E3        30.27F
DAYTON         CLOUDY    30  22  72 CALM      30.26R
WRIGHT-PAT AFB CLOUDY    29  22  72 E2        30.25S
DAYTON GENERAL CLOUDY    29  22  75 NE5       30.24S WCI  24
WILMINGTON     CLOUDY    28  22  78 E3        30.23S
$$

OHZ036-037-039>041-045>050-054>059-063>069-073>076-082>088-200700-
  CENTRAL AND SOUTHEAST OHIO

CITY           SKY/WX    TMP DP  RH WIND       PRES   REMARKS
COLUMBUS       CLOUDY    28  22  78 SE6       30.26S WCI  22
OSU AIRPORT    CLOUDY    29  22  75 SE3       30.25S
BOLTON FIELD   CLOUDY    30  24  78 CALM      30.25F
RICKENBACK AFB CLOUDY    29  23  78 E6        30.26S WCI  23
NEWARK         CLOUDY    30  22  72 E6        30.25F WCI  24
MARION         CLOUDY    29  21  72 CALM      30.25F
LANCASTER      CLOUDY    44  24  45 E3        30.26S
ZANESVILLE     CLOUDY    30  22  72 E3        30.25F
NEW PHILLY     CLOUDY    30  20  66 CALM      30.27F
$$



USA.gov is the U.S. government's official web portal to all federal, state and local government web resources and services.